Weather History for Columbia, MO

Change the Weather History Date:

Monday, November 15, 2010

  Actual Average Record
Temperature  
Mean Temperature 47 °F 45 °F  
Max Temperature 58 °F 54 °F 78 °F (1894)
Min Temperature 36 °F 35 °F 6 °F (1940)
Degree Days  
Heating Degree Days 18 20  
Month to date heating degree days 221 256  
Since 1 July heating degree days 448 621  
Cooling Degree Days 0 0  
Month to date cooling degree days 0 0  
Year to date cooling degree days 1500 1247  
Moisture  
Dew Point 35 °F    
Average Humidity 64    
Maximum Humidity 85    
Minimum Humidity 43    
Precipitation  
Precipitation T in 0.11 in 1.33 in (1964)
Month to date precipitation 0.34 1.62  
Year to date precipitation 42.21 38.55  
Snow  
Snow 0.00 in 0.00 in 4.80 in (1932)
Month to date snowfall 0.0 0.2  
Since 1 July snowfall 0.0 0.2  
Since 1 September snowfall 0.0 0.2  
Snow Depth 0.00 in    
Sea Level Pressure  
Sea Level Pressure 29.85 in    
Wind  
Wind Speed 5 mph (South)    
Max Wind Speed 20 mph    
Max Gust Speed 60 mph    
Visibility 10 miles    
Events      
T = Trace of Precipitation, MM = Missing Value Source: NWS Daily Summary

Daily Weather History Graph

Daily Weather History Graph

Search for Another Location

Airport:

Trip Planner

Search our weather history database for the weather conditions in past years. The results will help you decide how hot, cold, wet, or windy it might be!

Date:

Astronomy

Nov. 15, 2010 Rise Set
Actual Time 6:51 AM CST 4:55 PM CST
Civil Twilight 6:22 AM CST 5:23 PM CST
Nautical Twilight 5:50 AM CST 5:55 PM CST
Astronomical Twilight 5:19 AM CST 6:27 PM CST
Moon 1:35 PM CST (11/15) 1:00 AM CST (11/15)
Length of Visible Light 11h 00m
Length of Day
10h 03m
Waxing Gibbous, 69% of the Moon is Illuminated
Nov 15
Waxing Gibbous
Nov 21
Full
Nov 28
Last Quarter
Dec 5
New
Dec 13
First Quarter

Hourly Weather History & Observations

Time (CST) Temp. Windchill Dew Point Humidity Pressure Visibility Wind Dir Wind Speed Gust Speed Precip Events Conditions
12:54 AM 39.9 °F 35.8 °F 33.1 °F 77% 29.91 in 10.0 mi South 5.8 mph - N/A   Overcast
1:54 AM 41.0 °F 37.1 °F 34.0 °F 76% 29.89 in 10.0 mi South 5.8 mph - N/A   Overcast
2:54 AM 42.1 °F 37.7 °F 35.1 °F 76% 29.88 in 10.0 mi South 6.9 mph - N/A   Overcast
3:54 AM 42.1 °F - 35.1 °F 76% 29.86 in 10.0 mi Calm Calm - 0.00 in   Overcast
4:54 AM 39.9 °F 35.8 °F 33.1 °F 77% 29.86 in 10.0 mi South 5.8 mph - N/A   Scattered Clouds
5:54 AM 39.0 °F 34.8 °F 33.1 °F 79% 29.86 in 10.0 mi South 5.8 mph - N/A   Overcast
6:54 AM 39.0 °F 32.8 °F 33.1 °F 79% 29.88 in 10.0 mi South 9.2 mph - N/A   Mostly Cloudy
7:54 AM 39.9 °F 34.5 °F 33.1 °F 77% 29.89 in 10.0 mi SSE 8.1 mph - N/A   Clear
8:54 AM 43.0 °F 38.2 °F 35.1 °F 74% 29.90 in 10.0 mi SSE 8.1 mph - N/A   Clear
9:54 AM 48.0 °F - 35.1 °F 61% 29.89 in 10.0 mi South 10.4 mph - N/A   Clear
10:54 AM 52.0 °F - 36.0 °F 54% 29.87 in 10.0 mi SSE 9.2 mph - N/A   Clear
11:54 AM 55.9 °F - 36.0 °F 47% 29.85 in 10.0 mi SSE 10.4 mph - N/A   Overcast
12:54 PM 57.0 °F - 35.1 °F 44% 29.82 in 10.0 mi South 9.2 mph 20.7 mph N/A   Scattered Clouds
1:54 PM 55.9 °F - 36.0 °F 47% 29.82 in 10.0 mi SW 9.2 mph - N/A   Overcast
2:54 PM 54.0 °F - 37.0 °F 53% 29.81 in 10.0 mi SSW 9.2 mph 59.8 mph N/A   Partly Cloudy
3:00 PM 53.6 °F - 37.4 °F 54% 29.80 in 10.0 mi SW 5.8 mph - N/A   Scattered Clouds
3:54 PM 55.0 °F - 37.9 °F 53% 29.81 in 10.0 mi Calm Calm - N/A   Clear
4:54 PM 54.0 °F - 37.0 °F 53% 29.81 in 10.0 mi Calm Calm - N/A   Clear
5:54 PM 52.0 °F - 36.0 °F 54% 29.81 in 10.0 mi Calm Calm - N/A   Clear
6:54 PM 51.1 °F - 36.0 °F 56% 29.83 in 10.0 mi ESE 3.5 mph - N/A   Clear
7:54 PM 46.9 °F - 35.1 °F 63% 29.83 in 10.0 mi Calm Calm - N/A   Clear
8:54 PM 46.9 °F - 35.1 °F 63% 29.82 in 10.0 mi Calm Calm - N/A   Clear
9:54 PM 45.0 °F - 35.1 °F 68% 29.82 in 10.0 mi Calm Calm - N/A   Clear
10:54 PM 37.0 °F 32.4 °F 34.0 °F 89% 29.82 in 10.0 mi SSE 5.8 mph - N/A   Scattered Clouds
11:54 PM 42.1 °F - 35.1 °F 76% 29.80 in 10.0 mi Calm Calm - N/A   Mostly Cloudy